My Profile
  1. Member Settings
  2. My Devices
  3. Sign Out
        More Settings
      Elev 15 ft, 13.963 °N 100.653 °E

      Khu Khot, TH

      Summary

      Temperature (°F)MaxAverageMin
      Max Temperature10496.4186
      Avg Temperature93.7188.1579.67
      Min Temperature888275
      Precipitation (in)MaxAverageMinSum
      Precipitation0000
      Dew Point (°F)MaxAverageMin
      Dew Point80.7176.572.46
      Wind (mph)MaxAverageMin
      Wind2516.097
      Gust Wind3721.5314
      Sea Level Pressure (in)MaxAverageMin
      Sea Level Pressure29.8429.7429.64

      Daily Observations

      DateTemp High/LowDew Pt High/LowHumidityWindMax WindWind GustPressurePrecip.Condition
      5/1/2024 102 °F / 88 °F 81 °F / 64 °F 57 % 16 mph - 29.64 in 0 in
      5/2/2024 100 °F / 88 °F 81 °F / 68 °F 60 % 17 mph - 29.67 in 0 in
      5/3/2024 102 °F / 88 °F 81 °F / 66 °F 60 % 15 mph - 29.72 in 0 in
      5/4/2024 100 °F / 88 °F 81 °F / 72 °F 63 % 15 mph - 29.7 in 0 in
      5/5/2024 104 °F / 88 °F 81 °F / 66 °F 57 % 15 mph - 29.69 in 0 in
      5/6/2024 102 °F / 86 °F 81 °F / 72 °F 61 % 14 mph - 29.74 in 0 in
      5/7/2024 90 °F / 77 °F 79 °F / 72 °F 81 % 17 mph - 29.83 in 0 in
      5/8/2024 99 °F / 77 °F 81 °F / 66 °F 64 % 9 mph - 29.79 in 0 in
      5/9/2024 99 °F / 82 °F 79 °F / 72 °F 68 % 21 mph - 29.78 in 0 in
      5/10/2024 99 °F / 79 °F 77 °F / 72 °F 65 % 20 mph - 29.8 in 0 in
      5/11/2024 95 °F / 81 °F 77 °F / 73 °F 70 % 16 mph - 29.83 in 0 in
      5/12/2024 99 °F / 81 °F 79 °F / 73 °F 69 % 18 mph - 29.8 in 0 in
      5/13/2024 97 °F / 75 °F 81 °F / 73 °F 78 % 24 mph - 29.78 in 0 in
      5/14/2024 95 °F / 77 °F 77 °F / 72 °F 69 % 12 mph - 29.79 in 0 in
      5/15/2024 100 °F / 84 °F 79 °F / 72 °F 62 % 10 mph - 29.78 in 0 in
      5/16/2024 95 °F / 84 °F 81 °F / 77 °F 74 % 22 mph - 29.77 in 0 in
      5/17/2024 99 °F / 84 °F 81 °F / 73 °F 69 % 12 mph - 29.76 in 0 in
      5/18/2024 93 °F / 82 °F 81 °F / 75 °F 73 % 13 mph - 29.71 in 0 in
      5/19/2024 97 °F / 79 °F 82 °F / 73 °F 73 % 18 mph - 29.67 in 0 in
      5/20/2024 95 °F / 79 °F 81 °F / 75 °F 81 % 20 mph - 29.67 in 0 in
      5/21/2024 93 °F / 81 °F 81 °F / 77 °F 84 % 16 mph - 29.7 in 0 in
      5/22/2024 91 °F / 81 °F 79 °F / 73 °F 79 % 12 mph - 29.73 in 0 in
      5/23/2024 91 °F / 79 °F 81 °F / 77 °F 87 % 13 mph - 29.72 in 0 in
      5/24/2024 91 °F / 79 °F 79 °F / 77 °F 80 % 12 mph - 29.72 in 0 in
      5/25/2024 95 °F / 82 °F 81 °F / 75 °F 74 % 14 mph - 29.74 in 0 in
      5/26/2024 95 °F / 79 °F 81 °F / 73 °F 75 % 25 mph - 29.76 in 0 in
      5/27/2024 97 °F / 79 °F 81 °F / 73 °F 69 % 7 mph - 29.73 in 0 in
      5/28/2024 97 °F / 82 °F 81 °F / 72 °F 63 % 15 mph - 29.72 in 0 in
      5/29/2024 97 °F / 86 °F 81 °F / 73 °F 62 % 15 mph - 29.71 in 0 in
      5/30/2024 97 °F / 77 °F 79 °F / 72 °F 67 % 23 mph - 29.7 in 0 in
      5/31/2024 95 °F / 79 °F 79 °F / 75 °F 79 % 25 mph - 29.71 in 0 in
      essentialaccessibility.com
      We recognize our responsibility to use data and technology for good. We may use or share your data with our data vendors. Take control of your data.
      Glossary